Theta_e
349 348 347 346 343 336 331 333 336 339 340 340 338 333 330 333 336 337 337 338 339 341 339 339 339 344 342 342 339 338 335 325 324 326 337 344 342 334 338 341 338 338 340
348 348 347 346 341 332 330 334 333 332 332 330 330 331 333 335 337 339 340 343 343 343 334 330 332 340 340 333 334 334 334 323 324 330 336 333 340 331 339 342 328 327 328
348 347 346 343 336 331 330 330 329 328 329 330 332 333 334 336 339 330 327 327 329 329 327 327 327 330 328 331 331 331 328 324 325 332 338 343 336 326 325 325 325 325 327
347 348 345 340 332 331 330 330 329 329 331 332 333 334 332 337 335 328 330 332 326 324 324 324 324 324 326 327 330 335 337 339 340 326 330 338 339 332 327 326 325 324 324
345 341 338 334 331 332 331 331 330 329 330 333 335 336 335 332 337 331 333 337 341 333 327 324 324 331 339 332 330 336 340 342 343 339 339 324 328 333 332 334 331 333 328
342 335 332 331 331 332 330 330 332 332 333 335 336 334 334 335 332 329 329 329 331 334 336 332 331 327 327 329 326 334 340 341 342 335 331 333 323 323 324 330 336 330 331
339 331 328 329 330 332 331 333 333 334 333 333 333 332 332 334 333 331 330 329 328 329 331 332 333 334 336 335 330 328 335 339 339 336 333 334 328 324 324 328 339 326 332
335 331 328 328 330 332 331 333 333 332 330 330 330 329 329 329 330 333 333 332 330 331 333 331 332 332 333 335 336 336 336 338 337 337 337 335 340 335 331 327 324 323 326
334 332 328 327 329 331 331 332 331 330 329 330 330 330 329 329 329 332 333 332 333 330 332 330 332 335 334 334 335 337 337 337 336 337 335 336 340 337 336 332 331 324 324
347 331 332 326 327 330 331 330 330 330 330 330 330 330 330 329 335 335 333 333 333 332 331 334 334 336 332 333 336 340 338 338 336 338 337 337 340 339 339 341 333 332 325
347 336 335 328 326 329 332 331 331 331 330 330 330 330 329 330 330 331 332 334 332 333 331 332 333 331 332 333 338 338 333 333 336 338 339 342 341 341 340 340 337 333 332
345 341 339 339 338 333 333 337 335 335 337 339 339 339 339 339 335 332 333 337 332 334 331 332 332 332 338 341 339 341 341 335 337 338 338 341 342 341 339 339 337 335 333
348 348 343 340 340 340 340 340 340 338 338 339 338 338 340 340 339 339 338 336 333 333 332 332 330 335 342 343 339 341 339 339 337 340 336 341 342 339 339 338 336 335 334
350 348 346 345 342 340 339 341 339 343 339 341 342 341 340 340 341 341 338 334 334 333 332 332 337 337 341 342 343 341 337 336 339 336 339 342 340 339 340 338 335 333 334
350 349 349 348 345 344 344 344 345 346 344 342 341 342 341 343 341 342 341 337 334 334 334 334 335 340 340 343 341 342 341 342 343 340 343 343 341 339 339 338 334 334 333
350 349 350 349 348 346 345 345 346 341 341 341 342 342 341 342 344 343 340 341 341 338 334 333 337 340 341 342 341 343 344 342 343 342 344 344 343 343 340 338 335 333 333
350 350 349 349 348 348 347 347 346 347 345 344 340 342 341 340 342 345 340 340 343 341 338 333 337 340 342 343 342 342 343 343 342 343 343 344 345 345 343 341 334 332 334
349 350 349 349 349 348 348 347 347 346 345 346 345 344 343 341 341 344 342 343 344 342 338 334 339 340 342 344 343 341 343 343 344 344 345 344 345 345 344 343 337 332 333
349 348 348 349 349 348 348 348 348 347 346 346 344 346 345 342 341 343 344 342 344 342 337 338 342 340 340 342 343 341 342 344 344 345 344 345 344 344 346 345 343 339 333
347 347 348 349 349 350 349 349 347 348 349 347 344 343 345 342 341 341 339 341 342 344 345 344 342 341 342 342 342 342 342 344 344 344 344 344 344 345 345 345 346 345 340
347 348 349 349 350 350 350 350 350 349 349 347 347 344 344 344 343 341 341 340 341 339 342 345 346 344 342 344 344 343 344 344 344 344 344 346 345 345 344 346 345 345 338
348 349 349 349 350 351 351 350 350 349 346 346 348 347 347 347 345 340 340 341 342 342 342 341 344 344 340 341 343 344 343 342 340 345 345 345 345 345 344 343 345 343 343
349 349 350 350 350 352 352 352 352 351 350 349 348 346 347 346 345 344 342 342 343 342 341 339 341 343 343 343 343 343 344 343 343 343 344 346 343 345 345 345 344 344 344
350 350 351 351 351 352 353 353 352 349 347 348 350 349 348 345 344 344 342 342 342 340 341 342 342 343 344 343 343 343 343 344 346 344 342 343 345 347 347 347 342 343 344
352 351 352 352 353 354 354 354 353 350 345 349 350 348 347 348 346 345 344 342 341 342 342 340 342 343 342 342 342 343 343 345 346 346 343 344 345 345 342 341 342 341 342
350 354 353 353 353 354 355 355 352 351 349 351 350 350 350 348 348 345 344 346 346 345 344 343 342 339 340 341 342 343 345 346 346 345 346 344 344 343 340 341 341 341 341
Wind_Speed
22 23 24 25 28 28 27 26 25 25 25 25 24 24 25 25 23 21 19 16 15 14 12 13 12 13 13 14 14 15 14 13 15 18 19 17 17 16 16 18 17 18 18
27 25 25 27 27 28 29 31 30 28 27 26 26 27 26 23 21 20 18 17 15 13 13 14 15 15 15 15 16 15 14 13 15 16 16 16 15 14 15 15 15 16 16
28 27 27 27 27 28 29 30 28 27 27 27 27 25 23 21 21 20 18 16 15 16 15 17 17 17 17 16 15 15 15 15 14 12 11 11 12 12 12 12 14 15 15
29 27 27 26 26 27 27 27 26 26 27 26 25 24 23 22 21 21 19 18 18 17 17 15 16 17 16 16 15 17 18 17 14 12 10 10 8 10 11 11 13 13 13
28 26 26 25 25 25 26 24 23 23 23 22 21 20 20 19 18 18 17 16 16 16 15 15 14 14 13 13 13 12 11 11 11 9 5 5 7 10 11 11 12 11 12
27 26 26 25 25 24 23 23 23 23 22 20 18 17 16 16 15 15 14 13 14 13 12 11 11 11 10 11 12 11 7 7 7 12 14 4 6 8 11 11 10 10 10
26 26 25 25 25 24 24 23 22 21 20 18 14 12 13 14 12 10 9 10 10 12 11 10 8 7 8 8 8 7 4 6 2 1 17 11 8 8 9 10 11 10 8
25 25 25 25 24 23 23 23 21 20 18 16 14 11 8 8 8 6 3 6 8 9 9 8 7 6 5 5 5 6 6 7 8 12 12 17 13 10 7 7 9 10 10
19 23 24 25 23 23 22 21 19 18 16 14 12 11 10 5 6 5 7 8 6 7 7 6 5 4 2 1 1 2 5 7 9 13 14 26 18 14 11 10 8 9 10
15 19 22 24 24 23 22 20 17 16 15 14 13 13 12 13 15 18 17 16 11 8 7 5 3 1 1 2 2 4 5 9 12 3 12 18 18 15 14 14 13 12 11
16 19 18 21 22 21 20 18 16 14 13 12 13 14 15 15 15 16 16 16 17 11 9 6 3 1 2 4 3 3 4 8 10 9 9 14 18 13 17 16 18 16 13
22 22 21 20 19 20 19 18 17 14 11 10 16 15 15 15 17 19 21 20 23 13 11 6 4 1 2 6 6 6 4 6 7 12 10 14 15 13 14 18 19 20 17
19 18 18 19 18 18 18 18 17 14 15 12 7 16 9 12 13 13 14 22 26 17 11 8 7 5 5 4 6 6 7 5 9 14 14 14 14 14 14 15 15 21 19
21 19 19 17 17 16 15 12 14 14 17 16 11 10 15 9 9 9 7 21 23 23 13 10 7 7 3 3 6 8 7 9 5 10 12 14 14 12 11 12 12 18 20
23 21 21 19 18 16 16 11 11 12 16 14 12 10 9 15 7 7 7 15 23 21 20 13 11 8 8 7 8 6 8 5 2 6 8 10 9 7 8 10 11 13 18
24 24 21 22 19 16 17 15 15 10 11 11 15 13 8 7 12 8 6 9 15 21 22 17 13 11 10 8 9 8 9 12 11 6 5 7 7 5 6 8 11 12 17
25 26 21 23 21 18 17 16 16 15 15 11 12 17 13 8 9 11 8 6 9 13 21 21 16 12 12 12 9 11 13 10 11 9 7 8 6 5 4 6 7 10 13
26 28 24 23 22 19 20 19 15 16 16 15 15 16 12 10 6 13 10 9 7 11 19 22 16 17 17 14 13 12 13 13 12 12 13 11 11 9 6 5 5 8 9
28 25 24 26 22 13 20 19 12 14 14 11 12 17 13 11 11 9 11 10 10 11 18 21 19 16 18 15 14 13 14 13 16 14 15 15 12 11 10 8 7 6 8
26 22 27 27 23 16 21 18 11 13 12 14 10 11 14 11 13 14 10 15 14 13 13 14 19 19 18 16 16 14 12 15 17 16 16 17 17 15 13 10 10 9 9
28 20 29 29 25 22 22 20 18 15 14 15 15 11 14 17 11 15 14 11 16 15 13 13 16 19 21 19 19 18 16 13 16 19 20 17 19 18 16 14 14 12 7
28 25 24 31 25 22 23 23 18 14 14 12 13 14 14 16 15 16 15 14 17 16 16 17 19 20 20 18 21 20 19 20 18 17 16 15 17 17 16 15 16 14 11
28 28 22 26 26 23 22 20 20 17 17 15 18 17 13 15 16 16 16 17 15 18 20 20 21 22 20 19 18 15 6 7 6 15 14 15 15 17 18 18 16 17 14
30 31 25 23 25 21 19 22 22 22 17 16 13 11 13 13 15 16 15 18 19 16 17 22 19 19 18 18 16 16 18 10 2 4 11 15 15 18 20 21 17 20 18
24 31 27 22 23 19 17 19 19 24 21 16 14 13 13 14 13 17 19 18 18 20 18 17 21 19 17 18 17 14 16 17 17 14 11 9 14 18 16 18 16 20 16
16 26 33 29 23 21 18 18 19 21 22 19 17 16 13 13 13 14 17 20 22 21 21 19 19 22 20 20 18 16 17 14 16 13 13 12 12 14 17 17 18 19 20
Wind_Direction
143 140 139 138 137 138 140 142 140 137 136 134 134 134 131 125 121 125 128 131 133 126 127 136 138 134 126 126 118 120 117 123 132 132 123 118 116 119 122 118 119 118 118
144 142 142 141 139 137 137 136 135 134 134 134 133 132 131 130 127 124 122 121 123 127 127 128 129 131 128 123 121 123 121 128 128 122 116 126 131 125 125 126 122 122 122
144 143 145 144 142 138 138 138 137 138 139 137 135 134 131 131 128 125 122 121 118 119 120 125 124 126 124 122 126 128 124 116 111 114 118 120 127 120 132 131 125 124 124
146 146 148 147 143 141 141 142 142 139 138 139 137 133 131 128 127 126 122 115 113 113 117 124 130 132 131 131 133 130 121 119 112 118 127 139 136 133 136 134 127 124 125
150 149 149 149 146 144 147 144 138 137 137 139 139 135 132 131 132 133 130 125 118 118 121 127 134 135 134 134 142 136 136 149 136 117 111 144 175 155 148 148 139 133 128
152 152 151 152 151 150 149 147 143 145 143 140 141 139 136 131 134 133 139 136 132 125 120 123 128 135 138 141 155 162 171 173 162 209 222 187 179 187 164 157 150 141 140
152 154 153 157 155 154 154 154 153 148 144 143 147 150 147 136 128 123 145 145 144 136 130 128 129 138 142 153 166 179 194 237 194 152 183 209 175 198 183 169 170 154 160
154 156 157 160 160 159 162 162 162 159 156 152 154 156 169 175 174 143 178 176 165 155 144 138 144 152 155 167 181 210 218 246 254 218 213 199 200 202 212 192 184 174 179
156 160 161 164 165 166 170 172 174 172 174 174 170 174 180 185 214 210 275 251 215 181 168 151 149 132 121 152 224 246 239 251 262 258 247 226 216 203 222 222 211 201 194
166 171 166 168 171 172 179 183 187 191 192 200 199 197 207 215 248 258 274 250 236 211 194 180 166 143 52 348 337 284 230 229 244 310 207 196 208 215 228 230 220 215 205
173 176 176 175 176 179 180 188 196 202 207 219 225 230 231 237 241 239 256 242 225 225 211 200 190 200 325 340 316 286 261 235 240 232 231 213 211 229 229 228 227 217 214
166 177 185 185 184 182 187 193 197 200 206 232 236 238 239 242 248 248 253 233 216 222 214 209 209 210 344 337 305 262 284 234 258 260 247 215 222 236 236 233 229 219 219
172 172 178 186 194 197 199 205 204 216 208 225 238 229 228 235 242 253 250 204 210 215 214 213 219 239 292 294 338 320 255 264 266 246 232 220 224 227 230 235 234 218 214
183 180 171 170 172 182 191 203 211 238 213 221 233 230 235 232 230 245 234 206 213 222 225 217 225 237 259 316 315 327 290 255 274 208 232 219 218 223 231 243 229 215 214
191 193 181 182 181 184 183 199 223 224 224 220 219 222 227 236 211 220 232 222 226 230 227 225 236 247 254 293 288 307 256 285 316 187 198 215 212 213 225 241 227 213 217
199 201 194 195 199 208 204 208 224 255 218 227 234 233 245 242 222 224 223 230 231 232 227 226 233 246 257 266 272 291 281 287 263 257 241 220 200 202 218 250 239 225 230
201 204 204 204 207 212 221 221 239 248 232 250 241 225 231 244 240 226 224 236 238 231 221 222 231 236 246 262 270 274 278 267 247 253 261 245 225 206 211 239 249 234 237
196 202 206 208 208 218 218 226 240 239 243 249 241 218 219 234 234 224 221 242 236 226 214 220 236 238 243 257 260 252 248 273 255 254 270 250 244 240 238 244 261 238 233
203 209 208 210 217 232 217 228 242 243 243 246 248 220 219 224 228 236 224 221 224 215 219 231 236 242 240 249 262 256 245 263 258 267 254 246 256 254 251 247 236 246 246
215 223 215 216 218 227 224 230 246 242 246 251 253 243 228 229 235 232 286 224 213 215 219 222 222 227 232 240 250 257 261 258 253 256 256 246 241 255 253 238 236 247 258
213 221 219 218 214 219 223 218 237 253 243 251 250 257 242 228 244 246 248 252 226 221 222 223 222 225 232 244 250 254 255 258 257 246 248 237 241 260 241 240 247 248 247
213 220 222 219 220 222 228 234 247 252 247 258 260 259 254 250 247 247 250 256 238 237 235 234 231 235 237 241 245 257 270 268 263 243 230 232 237 241 244 242 246 246 238
219 221 226 223 222 228 233 237 240 239 247 242 240 239 246 248 246 248 246 242 238 240 240 245 245 241 250 251 240 241 233 245 277 245 240 237 224 230 239 246 245 244 236
222 222 226 228 226 232 238 237 244 242 248 250 252 251 242 245 245 245 239 237 236 240 248 242 244 246 259 244 233 241 232 242 293 303 227 226 236 244 246 250 238 238 235
220 220 223 232 232 238 240 246 245 241 254 253 252 246 238 236 246 247 243 240 241 246 249 247 246 252 246 249 245 247 238 241 254 259 270 236 243 247 239 233 240 236 245
226 223 221 225 233 237 238 243 239 242 245 236 232 236 238 236 236 244 245 244 247 248 250 253 252 246 246 249 250 255 249 244 250 256 253 257 242 250 236 238 247 252 247